SCP
0 0 0 0 0 0 0 0 0 0 0 0 0 0 0 0 0 0 0 0 -0 -1 -0 -0 -1 -0 -0 -0 -0 -0 -0 -0 -0 -0 -0 0 0 0 0 0 0 0 0 0 0 0 0 0 0
0 0 0 0 0 0 0 0 0 0 0 0 0 0 0 0 0 -0 0 0 0 -0 0 -0 -1 -1 -0 -0 -0 -0 -0 -0 -0 -0 -0 -0 0 0 0 0 0 0 0 0 0 0 0 0 0
0 0 0 0 0 0 0 0 0 0 0 -0 0 0 0 0 0 -0 0 0 0 0 0 0 -0 -0 -0 -0 -0 -0 -0 -0 -0 -0 -0 -0 0 0 0 0 -0 -0 0 0 0 0 0 0 0
0 0 0 0 0 0 0 0 0 0 0 0 0 0 0 0 0 -0 0 0 0 0 0 0 0 0 -0 -0 -0 -0 -0 -0 -0 -0 0 0 0 0 0 0 -0 -0 -0 -0 0 0 0 0 0
0 0 0 0 0 0 0 0 0 0 0 0 0 0 0 0 1 1 0 0 0 0 1 0 0 0 0 0 -0 0 0 0 0 0 0 0 0 0 0 0 0 -0 -0 -0 0 0 0 0 0
0 0 0 0 0 0 0 0 0 0 0 0 0 0 0 0 0 0 0 0 0 0 1 1 1 1 1 0 0 0 0 0 0 0 0 0 0 0 0 0 0 -0 -0 0 0 0 0 0 0
0 0 0 0 0 0 0 0 0 0 0 0 0 0 0 0 0 0 1 1 1 1 1 1 1 1 1 1 1 0 0 0 0 0 0 0 0 0 0 0 0 -0 -0 0 0 0 0 0 0
0 0 0 0 0 0 0 0 0 0 0 0 0 0 0 0 0 1 1 1 1 1 1 1 1 1 1 1 1 1 0 0 0 0 0 0 0 0 0 0 0 0 -0 0 0 0 0 0 0
0 0 0 0 0 0 0 0 0 0 0 0 0 0 0 0 0 1 1 1 1 1 1 1 1 1 0 1 1 1 1 1 1 0 0 0 0 0 0 0 0 0 0 0 0 0 0 0 0
0 0 0 0 0 0 0 0 0 0 0 0 0 0 0 0 0 0 1 1 1 1 1 0 1 1 1 1 1 1 1 1 1 1 0 0 0 0 0 0 0 0 0 0 0 0 0 0 0
0 0 0 0 0 0 0 0 0 0 0 0 0 0 0 0 0 0 0 0 0 1 1 1 1 1 1 1 1 1 1 1 1 0 0 0 0 0 0 0 0 0 0 0 0 0 0 0 0
0 0 0 0 0 0 -0 0 0 0 0 0 0 0 0 0 0 0 0 0 0 1 0 1 1 1 1 2 1 1 1 1 0 0 0 0 0 0 0 0 0 0 0 0 0 0 0 0 0
0 0 0 0 0 0 0 0 0 0 0 0 0 0 0 0 0 0 0 0 0 -0 0 1 1 1 1 1 1 1 0 0 0 0 0 0 0 0 0 0 0 0 0 0 0 0 0 0 0
0 0 0 0 0 0 0 0 0 0 0 0 0 0 0 0 0 0 0 0 0 0 0 0 0 0 0 1 1 1 1 1 0 0 0 0 0 0 0 0 0 0 0 0 0 0 0 0 0
0 0 0 0 0 0 0 0 0 0 0 0 0 0 0 -0 0 0 0 0 0 0 0 0 0 0 0 1 1 1 1 1 0 0 0 0 0 0 0 0 0 0 0 0 0 0 0 0 0
0 0 0 0 0 0 0 0 0 0 0 0 0 0 0 0 0 0 0 0 0 1 0 0 0 0 0 0 1 0 0 0 0 0 0 0 0 0 0 0 0 0 0 0 0 0 0 0 0
0 0 0 0 0 0 0 0 0 0 0 0 0 0 0 0 0 0 0 0 0 0 1 1 1 0 0 0 0 0 0 0 0 0 0 0 0 0 0 0 0 0 0 0 0 0 0 0 0
0 0 0 0 0 0 0 0 0 0 0 0 0 0 0 0 0 0 0 0 0 0 1 1 1 1 0 0 1 0 0 0 0 0 0 0 0 0 0 0 0 0 0 0 0 0 0 0 0
0 0 0 0 0 0 0 0 0 0 0 0 0 0 0 0 0 0 0 0 0 0 0 0 1 1 1 1 1 1 1 0 0 0 0 0 0 0 0 0 0 0 0 0 0 0 0 0 0
0 0 0 0 0 0 0 0 0 0 0 0 0 0 0 0 0 0 0 0 0 0 0 0 0 0 1 1 1 1 1 1 1 1 0 0 0 0 0 0 0 0 0 0 0 0 0 0 0
0 0 0 0 0 0 0 0 0 0 0 0 0 0 0 0 0 0 -0 0 0 0 0 0 0 0 0 0 1 1 1 1 1 1 1 1 0 0 0 0 0 0 0 0 0 0 0 0 0
0 0 0 0 0 0 0 0 0 0 0 0 0 0 0 0 0 0 0 0 0 0 0 0 0 0 0 0 0 1 1 1 1 1 1 1 1 0 0 0 0 0 0 0 0 0 0 0 0
0 0 0 0 0 0 0 0 0 0 0 0 0 0 0 0 0 0 0 0 0 0 0 0 0 0 0 0 0 0 1 1 1 1 1 1 0 0 0 0 0 0 0 0 0 0 0 0 0
0 0 0 0 0 0 0 0 0 0 0 0 0 0 0 0 0 0 0 0 0 0 0 0 0 0 0 0 0 0 0 1 1 1 1 1 1 0 0 0 0 0 0 0 0 0 0 0 0
0 0 0 0 0 0 0 0 0 0 0 0 0 0 0 0 0 0 0 0 0 0 0 0 0 0 0 0 0 0 0 0 1 1 1 1 1 1 1 0 0 0 0 0 0 0 0 0 0
0 0 0 0 0 0 0 0 0 0 0 0 0 0 0 0 0 0 0 0 0 0 0 0 0 0 0 0 0 0 0 0 1 1 2 2 1 1 1 1 1 1 0 0 0 0 0 0 0
0 0 0 0 0 0 0 0 0 0 0 0 0 0 0 0 0 0 0 0 0 0 0 0 0 0 0 0 0 0 0 0 0 1 1 1 1 1 1 1 1 0 1 1 1 0 0 0 0
0 0 0 0 0 0 0 0 0 0 0 0 0 0 -0 0 0 0 0 0 0 0 0 0 0 0 0 0 0 0 0 0 0 1 1 1 1 1 1 1 1 1 1 1 0 0 0 0 0
0 0 0 0 0 0 0 0 0 0 0 0 0 0 0 0 0 0 0 0 0 0 0 0 0 0 0 0 0 0 0 0 0 1 1 1 1 1 1 1 1 1 1 1 1 0 0 0 0
0 0 0 0 0 0 0 0 0 0 0 0 0 0 0 0 0 0 0 0 0 0 0 0 0 0 0 0 0 0 0 0 0 0 0 1 1 1 1 1 1 1 1 0 0 0 0 0 0
Wind_Speed_500mb
5 6 4 4 8 10 7 12 5 13 18 15 4 12 18 23 11 7 27 23 29 52 54 50 49 44 39 40 44 45 44 44 43 41 39 36 32 30 26 23 22 20 19 19 19 18 15 14 13
12 6 3 7 10 8 10 10 9 4 12 12 34 30 16 7 7 17 18 28 27 48 49 47 49 47 43 41 44 45 44 44 43 41 39 37 33 29 26 22 21 20 19 19 19 20 15 13 10
12 6 4 9 8 7 8 8 17 41 26 22 8 23 12 5 6 12 19 30 35 43 44 44 46 48 46 42 43 44 45 45 43 42 39 36 32 27 24 21 19 19 18 17 19 20 15 12 7
7 6 9 8 7 8 7 17 23 18 24 13 21 12 15 9 12 21 29 27 31 40 42 42 42 44 46 43 41 44 45 46 45 41 39 36 30 26 22 20 18 17 16 16 19 17 14 11 6
6 6 8 6 4 8 9 21 28 13 10 20 9 11 13 31 23 18 24 21 15 22 32 41 42 42 44 45 42 43 45 46 44 42 39 35 29 25 22 19 17 17 16 16 17 15 12 9 7
7 6 10 1 7 10 12 21 23 19 28 28 29 20 19 19 10 18 23 18 18 13 26 31 37 39 41 44 45 44 45 46 45 42 39 35 30 26 21 19 17 16 16 17 17 14 13 11 4
11 8 7 5 6 9 9 22 14 12 29 25 10 7 12 24 15 11 15 20 24 30 33 28 32 36 40 43 46 47 45 46 46 43 39 36 30 25 21 17 14 14 15 17 18 16 15 11 5
5 8 4 2 1 5 12 20 19 24 14 13 13 9 9 20 11 13 18 24 26 30 38 39 36 38 44 47 48 49 48 46 45 44 41 35 30 26 22 18 15 15 15 17 18 16 16 13 6
4 9 0 5 1 10 9 12 17 6 21 10 15 20 17 18 14 15 14 20 25 25 31 36 34 35 43 49 49 50 50 47 46 45 42 38 34 29 27 22 19 17 17 19 22 17 15 14 5
8 7 15 10 4 5 6 8 11 12 30 8 21 13 18 18 15 6 13 10 22 28 29 33 34 28 33 46 51 53 55 55 53 50 46 42 36 32 28 25 22 19 20 22 26 24 16 14 9
4 8 7 7 11 4 2 4 9 4 7 30 39 29 27 23 15 19 9 5 4 16 29 33 37 37 34 38 52 55 57 59 55 51 49 46 42 38 35 33 28 24 23 23 26 31 18 13 12
1 4 8 11 21 20 10 15 4 16 28 31 36 38 39 31 24 17 20 13 12 11 14 30 43 43 42 43 51 55 58 59 59 55 53 51 47 43 38 37 32 27 24 24 27 29 24 17 14
1 6 21 32 29 41 30 18 8 33 35 29 31 36 38 36 30 18 17 18 16 12 15 18 30 39 41 39 45 53 53 54 55 57 57 54 51 46 42 41 36 30 28 26 30 31 25 22 19
10 13 24 25 28 17 6 8 8 45 44 43 43 45 44 42 38 28 23 23 21 20 14 18 21 25 31 29 34 44 47 50 54 57 59 58 56 51 48 44 40 33 30 29 34 31 26 24 22
14 15 14 7 8 9 1 11 8 37 48 48 49 41 22 27 29 35 26 23 22 16 15 11 13 16 18 23 30 33 38 42 46 48 55 58 57 55 53 48 42 33 29 34 37 33 31 28 27
10 9 11 11 13 7 6 12 14 33 33 34 36 30 29 33 36 34 34 35 27 16 15 9 12 17 21 24 28 33 39 40 42 42 40 53 58 58 58 55 49 35 30 32 33 31 33 33 31
12 2 5 15 13 5 5 13 16 39 44 42 44 39 30 41 40 33 34 36 35 33 28 29 28 28 23 23 28 28 33 40 42 52 50 48 48 59 62 60 54 44 40 37 35 37 35 38 29
9 4 6 10 11 9 11 17 19 51 43 46 45 44 39 37 38 46 44 42 43 41 38 31 32 32 30 26 25 31 32 38 40 45 54 52 51 46 56 64 60 49 46 45 38 39 40 40 36
8 9 10 10 11 5 16 15 33 42 30 37 51 38 40 45 48 43 48 50 52 48 46 41 36 35 33 31 35 43 45 46 51 49 45 57 60 49 49 56 61 57 52 49 40 41 42 47 44
13 5 11 9 11 3 16 22 34 16 22 33 42 37 37 44 44 32 34 43 55 51 46 44 44 44 43 38 38 41 44 46 49 47 50 45 58 62 53 57 56 65 57 53 51 55 55 54 49
6 8 8 12 5 8 10 16 15 14 12 19 19 25 37 29 19 16 26 33 33 28 28 36 42 46 46 45 47 51 51 55 54 52 54 55 54 67 59 60 63 63 67 64 61 60 64 59 56
7 12 6 9 9 6 6 10 12 11 18 11 24 27 28 18 8 10 20 27 21 20 21 19 20 24 29 38 48 55 58 64 61 61 59 51 57 61 73 66 69 69 70 72 68 61 68 63 60
16 9 6 6 10 4 1 4 14 9 12 12 17 23 23 22 15 10 18 19 20 21 19 16 13 13 18 23 29 37 60 69 73 69 69 55 58 61 62 75 69 73 72 73 71 66 72 68 62
5 4 10 7 5 4 11 7 11 6 9 9 9 18 22 25 21 16 11 6 9 5 5 8 10 11 15 23 30 34 37 50 69 71 72 63 64 66 66 64 73 81 85 73 65 66 72 70 63
13 11 8 9 7 11 8 4 16 11 13 11 11 10 13 13 10 9 6 2 6 12 15 16 18 18 18 21 25 28 31 34 36 46 64 64 68 64 62 67 67 75 72 72 64 61 75 72 63
1 12 9 10 7 11 8 11 11 15 23 19 19 7 4 3 6 11 13 16 19 18 19 24 28 33 37 34 34 34 31 32 37 41 50 63 65 66 62 61 70 72 74 74 80 70 78 73 66
6 5 10 5 6 2 11 13 17 11 14 23 25 23 15 20 21 29 35 36 33 34 29 29 33 35 37 43 48 49 45 48 47 45 51 54 58 66 69 68 69 67 77 88 88 80 82 77 68
8 9 5 3 9 10 8 8 12 3 18 14 14 21 25 33 27 45 48 51 53 43 40 34 35 37 40 49 54 58 64 58 53 56 58 59 58 67 77 77 77 71 71 86 93 86 84 78 69
4 3 4 6 8 8 7 11 14 17 17 16 17 37 43 45 68 71 56 59 43 39 36 33 37 43 53 57 59 57 61 53 40 42 50 63 63 70 79 78 77 75 77 88 100 93 82 75 71
9 13 13 8 9 7 5 23 13 22 8 14 26 57 64 78 83 70 66 47 41 33 31 35 39 49 56 51 55 64 60 52 51 46 48 53 65 71 76 77 75 79 83 94 109 100 84 75 68
Wind_Direction_500mb
158 164 12 42 54 63 296 273 273 323 353 343 104 124 142 130 159 216 144 161 158 173 175 177 179 180 178 176 175 175 177 178 175 172 169 167 166 163 161 152 142 135 125 116 112 108 113 104 102
154 149 58 79 80 53 279 265 258 156 319 298 79 82 59 59 74 141 153 179 159 168 176 178 180 183 182 179 178 177 176 177 176 174 172 170 171 171 165 157 148 136 126 121 114 118 129 117 111
142 125 115 91 108 166 233 290 291 299 315 259 139 98 91 82 45 145 138 155 167 181 180 179 181 185 187 185 182 180 179 177 177 178 176 175 176 175 168 160 149 138 131 118 112 124 132 120 124
136 130 68 86 188 243 226 284 292 304 339 20 119 58 84 125 133 139 141 144 155 181 184 183 185 188 192 192 189 186 183 182 181 182 182 181 181 180 174 162 152 142 129 114 114 128 129 122 130
73 64 63 73 284 274 267 304 339 354 359 27 90 82 68 96 118 121 141 144 146 173 184 188 189 193 196 198 197 193 191 189 186 186 187 186 187 186 180 168 158 145 134 119 121 133 127 123 126
64 70 56 85 299 274 294 10 13 32 25 59 67 65 62 80 106 126 156 167 176 187 190 189 195 199 203 205 204 203 198 195 193 191 190 191 192 190 185 180 165 152 141 125 134 140 133 129 124
104 78 167 184 281 327 322 355 29 343 31 17 50 62 43 66 89 151 188 196 192 200 197 194 200 203 210 213 210 208 205 201 200 197 196 198 197 197 194 189 173 160 144 137 148 148 145 139 143
88 90 60 278 332 300 332 358 14 29 19 55 32 29 348 6 86 105 185 198 201 207 200 197 200 206 212 214 214 212 209 207 205 204 203 204 204 204 203 197 188 170 158 153 157 159 155 158 179
158 62 49 249 265 276 330 20 21 352 11 37 39 58 48 38 78 108 154 193 196 210 218 207 207 214 216 216 214 212 210 209 208 207 208 208 210 210 209 204 200 185 174 167 167 177 167 167 158
102 112 215 214 216 255 314 345 348 5 343 323 327 331 347 338 332 67 109 163 194 206 217 221 220 228 231 221 215 213 211 210 210 208 209 212 214 216 218 216 212 200 189 181 176 181 191 185 200
53 200 195 277 302 295 251 303 325 341 294 287 299 308 312 316 305 294 285 203 161 201 221 234 233 225 229 234 220 215 213 214 214 213 215 216 218 219 219 220 218 212 204 192 185 178 207 200 219
290 313 44 316 325 321 316 307 247 252 262 289 293 295 303 295 291 263 275 261 188 230 224 237 238 228 226 230 227 220 217 217 219 219 220 221 223 225 226 228 226 222 216 200 194 181 187 208 228
67 316 320 321 328 326 306 265 271 280 295 292 284 285 286 289 287 263 251 256 264 247 236 227 229 236 232 237 236 232 228 226 227 226 227 227 228 230 233 235 234 232 225 205 195 196 209 222 238
298 287 317 328 315 318 290 293 351 292 292 292 302 293 281 271 277 252 243 252 255 249 208 220 213 228 241 238 248 242 238 237 232 231 231 233 233 233 237 239 239 234 227 211 201 209 224 234 238
308 342 353 356 335 288 321 343 267 297 305 294 303 291 267 241 251 240 251 251 253 232 198 207 218 224 240 254 249 245 246 247 245 243 244 238 239 240 241 243 239 235 231 214 212 217 230 240 242
15 41 6 290 324 334 34 263 289 327 334 321 317 286 257 232 231 235 241 246 248 206 203 216 232 239 238 255 254 261 252 252 253 249 249 250 246 245 245 246 240 228 218 213 214 229 247 245 236
359 226 237 314 308 330 14 278 272 308 307 300 299 295 291 269 247 237 241 240 245 250 235 243 254 253 248 261 257 254 261 267 261 260 257 254 255 250 248 247 242 228 219 227 243 245 247 229 231
238 264 266 240 287 325 288 261 270 287 284 284 292 291 285 276 270 256 243 239 237 244 250 242 254 255 255 260 257 258 251 263 273 266 260 264 257 256 251 249 243 233 228 233 245 243 231 223 223
199 204 229 247 253 225 269 288 289 289 287 287 293 291 289 282 270 251 253 239 241 243 241 240 242 248 251 251 253 262 267 271 273 278 281 273 264 253 254 247 243 236 232 234 241 228 218 214 207
242 268 282 280 271 303 293 291 284 286 268 279 283 285 303 285 278 237 244 246 244 246 241 235 241 245 249 259 266 268 277 281 284 286 278 278 260 255 250 246 245 236 236 238 235 224 214 216 220
267 208 232 242 315 294 336 313 334 304 285 298 271 304 321 294 232 244 258 230 229 227 222 233 245 252 251 256 255 261 269 270 273 282 281 285 276 257 255 244 245 244 239 240 237 232 226 224 217
250 224 245 286 9 268 92 282 296 311 310 343 342 3 357 348 285 225 191 179 180 212 213 215 223 229 240 256 262 265 267 267 274 284 289 287 285 272 255 256 241 242 242 239 238 238 228 232 229
240 183 238 260 262 18 285 117 266 335 310 333 342 19 49 58 74 152 192 211 217 195 189 191 209 231 250 257 273 277 266 265 269 273 277 279 283 278 264 256 251 240 240 237 238 238 229 231 236
69 50 34 57 85 5 227 132 281 274 253 291 344 62 56 59 70 79 89 130 171 177 221 240 245 251 269 280 282 281 287 281 271 268 272 271 278 280 271 260 256 246 236 225 231 236 232 232 236
65 58 342 339 358 231 257 303 241 237 233 218 173 116 78 65 52 40 58 111 229 249 260 265 276 295 307 297 273 284 291 293 291 283 271 263 271 278 267 261 252 259 247 224 231 228 237 235 238
255 148 158 257 216 241 338 255 251 214 243 246 246 233 200 271 312 312 302 302 295 287 284 281 282 290 291 289 278 279 283 288 288 290 282 270 272 276 268 261 254 259 245 228 235 237 238 238 240
174 209 186 210 228 94 217 281 312 227 276 281 240 211 233 253 276 288 292 283 283 288 288 288 296 294 291 295 289 290 290 285 283 288 288 278 268 267 271 262 258 256 251 241 241 227 233 235 236
151 173 4 15 296 258 265 244 227 218 234 261 250 243 274 262 288 292 273 272 273 270 272 278 290 300 303 301 297 291 289 290 283 280 285 277 267 263 264 266 261 256 245 237 224 227 230 231 231
272 188 161 167 160 229 278 244 214 232 234 243 265 284 301 290 294 302 290 264 245 246 258 276 289 299 303 301 299 306 294 287 279 282 283 277 266 259 262 264 259 254 245 227 227 224 226 225 226
186 207 159 140 260 225 215 261 277 254 240 251 280 321 315 305 301 294 288 242 228 242 262 277 292 294 298 300 303 305 297 286 272 278 280 275 269 260 264 260 259 251 240 232 222 221 219 221 224
Wind_Speed_850mb
5 6 4 4 8 10 7 12 5 13 18 15 4 12 18 23 11 7 27 23 29 52 54 50 49 44 39 40 44 45 44 44 43 41 39 36 32 30 26 23 22 20 19 19 19 18 15 14 13
12 6 3 7 10 8 10 10 9 4 12 12 34 30 16 7 7 17 18 28 27 48 49 47 49 47 43 41 44 45 44 44 43 41 39 37 33 29 26 22 21 20 19 19 19 20 15 13 10
12 6 4 9 8 7 8 8 17 41 26 22 8 23 12 5 6 12 19 30 35 43 44 44 46 48 46 42 43 44 45 45 43 42 39 36 32 27 24 21 19 19 18 17 19 20 15 12 7
7 6 9 8 7 8 7 17 23 18 24 13 21 12 15 9 12 21 29 27 31 40 42 42 42 44 46 43 41 44 45 46 45 41 39 36 30 26 22 20 18 17 16 16 19 17 14 11 6
6 6 8 6 4 8 9 21 28 13 10 20 9 11 13 31 23 18 24 21 15 22 32 41 42 42 44 45 42 43 45 46 44 42 39 35 29 25 22 19 17 17 16 16 17 15 12 9 7
7 6 10 1 7 10 12 21 23 19 28 28 29 20 19 19 10 18 23 18 18 13 26 31 37 39 41 44 45 44 45 46 45 42 39 35 30 26 21 19 17 16 16 17 17 14 13 11 4
11 8 7 5 6 9 9 22 14 12 29 25 10 7 12 24 15 11 15 20 24 30 33 28 32 36 40 43 46 47 45 46 46 43 39 36 30 25 21 17 14 14 15 17 18 16 15 11 5
5 8 4 2 1 5 12 20 19 24 14 13 13 9 9 20 11 13 18 24 26 30 38 39 36 38 44 47 48 49 48 46 45 44 41 35 30 26 22 18 15 15 15 17 18 16 16 13 6
4 9 0 5 1 10 9 12 17 6 21 10 15 20 17 18 14 15 14 20 25 25 31 36 34 35 43 49 49 50 50 47 46 45 42 38 34 29 27 22 19 17 17 19 22 17 15 14 5
8 7 15 10 4 5 6 8 11 12 30 8 21 13 18 18 15 6 13 10 22 28 29 33 34 28 33 46 51 53 55 55 53 50 46 42 36 32 28 25 22 19 20 22 26 24 16 14 9
4 8 7 7 11 4 2 4 9 4 7 30 39 29 27 23 15 19 9 5 4 16 29 33 37 37 34 38 52 55 57 59 55 51 49 46 42 38 35 33 28 24 23 23 26 31 18 13 12
1 4 8 11 21 20 10 15 4 16 28 31 36 38 39 31 24 17 20 13 12 11 14 30 43 43 42 43 51 55 58 59 59 55 53 51 47 43 38 37 32 27 24 24 27 29 24 17 14
1 6 21 32 29 41 30 18 8 33 35 29 31 36 38 36 30 18 17 18 16 12 15 18 30 39 41 39 45 53 53 54 55 57 57 54 51 46 42 41 36 30 28 26 30 31 25 22 19
10 13 24 25 28 17 6 8 8 45 44 43 43 45 44 42 38 28 23 23 21 20 14 18 21 25 31 29 34 44 47 50 54 57 59 58 56 51 48 44 40 33 30 29 34 31 26 24 22
14 15 14 7 8 9 1 11 8 37 48 48 49 41 22 27 29 35 26 23 22 16 15 11 13 16 18 23 30 33 38 42 46 48 55 58 57 55 53 48 42 33 29 34 37 33 31 28 27
10 9 11 11 13 7 6 12 14 33 33 34 36 30 29 33 36 34 34 35 27 16 15 9 12 17 21 24 28 33 39 40 42 42 40 53 58 58 58 55 49 35 30 32 33 31 33 33 31
12 2 5 15 13 5 5 13 16 39 44 42 44 39 30 41 40 33 34 36 35 33 28 29 28 28 23 23 28 28 33 40 42 52 50 48 48 59 62 60 54 44 40 37 35 37 35 38 29
9 4 6 10 11 9 11 17 19 51 43 46 45 44 39 37 38 46 44 42 43 41 38 31 32 32 30 26 25 31 32 38 40 45 54 52 51 46 56 64 60 49 46 45 38 39 40 40 36
8 9 10 10 11 5 16 15 33 42 30 37 51 38 40 45 48 43 48 50 52 48 46 41 36 35 33 31 35 43 45 46 51 49 45 57 60 49 49 56 61 57 52 49 40 41 42 47 44
13 5 11 9 11 3 16 22 34 16 22 33 42 37 37 44 44 32 34 43 55 51 46 44 44 44 43 38 38 41 44 46 49 47 50 45 58 62 53 57 56 65 57 53 51 55 55 54 49
6 8 8 12 5 8 10 16 15 14 12 19 19 25 37 29 19 16 26 33 33 28 28 36 42 46 46 45 47 51 51 55 54 52 54 55 54 67 59 60 63 63 67 64 61 60 64 59 56
7 12 6 9 9 6 6 10 12 11 18 11 24 27 28 18 8 10 20 27 21 20 21 19 20 24 29 38 48 55 58 64 61 61 59 51 57 61 73 66 69 69 70 72 68 61 68 63 60
16 9 6 6 10 4 1 4 14 9 12 12 17 23 23 22 15 10 18 19 20 21 19 16 13 13 18 23 29 37 60 69 73 69 69 55 58 61 62 75 69 73 72 73 71 66 72 68 62
5 4 10 7 5 4 11 7 11 6 9 9 9 18 22 25 21 16 11 6 9 5 5 8 10 11 15 23 30 34 37 50 69 71 72 63 64 66 66 64 73 81 85 73 65 66 72 70 63
13 11 8 9 7 11 8 4 16 11 13 11 11 10 13 13 10 9 6 2 6 12 15 16 18 18 18 21 25 28 31 34 36 46 64 64 68 64 62 67 67 75 72 72 64 61 75 72 63
1 12 9 10 7 11 8 11 11 15 23 19 19 7 4 3 6 11 13 16 19 18 19 24 28 33 37 34 34 34 31 32 37 41 50 63 65 66 62 61 70 72 74 74 80 70 78 73 66
6 5 10 5 6 2 11 13 17 11 14 23 25 23 15 20 21 29 35 36 33 34 29 29 33 35 37 43 48 49 45 48 47 45 51 54 58 66 69 68 69 67 77 88 88 80 82 77 68
8 9 5 3 9 10 8 8 12 3 18 14 14 21 25 33 27 45 48 51 53 43 40 34 35 37 40 49 54 58 64 58 53 56 58 59 58 67 77 77 77 71 71 86 93 86 84 78 69
4 3 4 6 8 8 7 11 14 17 17 16 17 37 43 45 68 71 56 59 43 39 36 33 37 43 53 57 59 57 61 53 40 42 50 63 63 70 79 78 77 75 77 88 100 93 82 75 71
9 13 13 8 9 7 5 23 13 22 8 14 26 57 64 78 83 70 66 47 41 33 31 35 39 49 56 51 55 64 60 52 51 46 48 53 65 71 76 77 75 79 83 94 109 100 84 75 68
Wind_Direction_850mb
158 164 12 42 54 63 296 273 273 323 353 343 104 124 142 130 159 216 144 161 158 173 175 177 179 180 178 176 175 175 177 178 175 172 169 167 166 163 161 152 142 135 125 116 112 108 113 104 102
154 149 58 79 80 53 279 265 258 156 319 298 79 82 59 59 74 141 153 179 159 168 176 178 180 183 182 179 178 177 176 177 176 174 172 170 171 171 165 157 148 136 126 121 114 118 129 117 111
142 125 115 91 108 166 233 290 291 299 315 259 139 98 91 82 45 145 138 155 167 181 180 179 181 185 187 185 182 180 179 177 177 178 176 175 176 175 168 160 149 138 131 118 112 124 132 120 124
136 130 68 86 188 243 226 284 292 304 339 20 119 58 84 125 133 139 141 144 155 181 184 183 185 188 192 192 189 186 183 182 181 182 182 181 181 180 174 162 152 142 129 114 114 128 129 122 130
73 64 63 73 284 274 267 304 339 354 359 27 90 82 68 96 118 121 141 144 146 173 184 188 189 193 196 198 197 193 191 189 186 186 187 186 187 186 180 168 158 145 134 119 121 133 127 123 126
64 70 56 85 299 274 294 10 13 32 25 59 67 65 62 80 106 126 156 167 176 187 190 189 195 199 203 205 204 203 198 195 193 191 190 191 192 190 185 180 165 152 141 125 134 140 133 129 124
104 78 167 184 281 327 322 355 29 343 31 17 50 62 43 66 89 151 188 196 192 200 197 194 200 203 210 213 210 208 205 201 200 197 196 198 197 197 194 189 173 160 144 137 148 148 145 139 143
88 90 60 278 332 300 332 358 14 29 19 55 32 29 348 6 86 105 185 198 201 207 200 197 200 206 212 214 214 212 209 207 205 204 203 204 204 204 203 197 188 170 158 153 157 159 155 158 179
158 62 49 249 265 276 330 20 21 352 11 37 39 58 48 38 78 108 154 193 196 210 218 207 207 214 216 216 214 212 210 209 208 207 208 208 210 210 209 204 200 185 174 167 167 177 167 167 158
102 112 215 214 216 255 314 345 348 5 343 323 327 331 347 338 332 67 109 163 194 206 217 221 220 228 231 221 215 213 211 210 210 208 209 212 214 216 218 216 212 200 189 181 176 181 191 185 200
53 200 195 277 302 295 251 303 325 341 294 287 299 308 312 316 305 294 285 203 161 201 221 234 233 225 229 234 220 215 213 214 214 213 215 216 218 219 219 220 218 212 204 192 185 178 207 200 219
290 313 44 316 325 321 316 307 247 252 262 289 293 295 303 295 291 263 275 261 188 230 224 237 238 228 226 230 227 220 217 217 219 219 220 221 223 225 226 228 226 222 216 200 194 181 187 208 228
67 316 320 321 328 326 306 265 271 280 295 292 284 285 286 289 287 263 251 256 264 247 236 227 229 236 232 237 236 232 228 226 227 226 227 227 228 230 233 235 234 232 225 205 195 196 209 222 238
298 287 317 328 315 318 290 293 351 292 292 292 302 293 281 271 277 252 243 252 255 249 208 220 213 228 241 238 248 242 238 237 232 231 231 233 233 233 237 239 239 234 227 211 201 209 224 234 238
308 342 353 356 335 288 321 343 267 297 305 294 303 291 267 241 251 240 251 251 253 232 198 207 218 224 240 254 249 245 246 247 245 243 244 238 239 240 241 243 239 235 231 214 212 217 230 240 242
15 41 6 290 324 334 34 263 289 327 334 321 317 286 257 232 231 235 241 246 248 206 203 216 232 239 238 255 254 261 252 252 253 249 249 250 246 245 245 246 240 228 218 213 214 229 247 245 236
359 226 237 314 308 330 14 278 272 308 307 300 299 295 291 269 247 237 241 240 245 250 235 243 254 253 248 261 257 254 261 267 261 260 257 254 255 250 248 247 242 228 219 227 243 245 247 229 231
238 264 266 240 287 325 288 261 270 287 284 284 292 291 285 276 270 256 243 239 237 244 250 242 254 255 255 260 257 258 251 263 273 266 260 264 257 256 251 249 243 233 228 233 245 243 231 223 223
199 204 229 247 253 225 269 288 289 289 287 287 293 291 289 282 270 251 253 239 241 243 241 240 242 248 251 251 253 262 267 271 273 278 281 273 264 253 254 247 243 236 232 234 241 228 218 214 207
242 268 282 280 271 303 293 291 284 286 268 279 283 285 303 285 278 237 244 246 244 246 241 235 241 245 249 259 266 268 277 281 284 286 278 278 260 255 250 246 245 236 236 238 235 224 214 216 220
267 208 232 242 315 294 336 313 334 304 285 298 271 304 321 294 232 244 258 230 229 227 222 233 245 252 251 256 255 261 269 270 273 282 281 285 276 257 255 244 245 244 239 240 237 232 226 224 217
250 224 245 286 9 268 92 282 296 311 310 343 342 3 357 348 285 225 191 179 180 212 213 215 223 229 240 256 262 265 267 267 274 284 289 287 285 272 255 256 241 242 242 239 238 238 228 232 229
240 183 238 260 262 18 285 117 266 335 310 333 342 19 49 58 74 152 192 211 217 195 189 191 209 231 250 257 273 277 266 265 269 273 277 279 283 278 264 256 251 240 240 237 238 238 229 231 236
69 50 34 57 85 5 227 132 281 274 253 291 344 62 56 59 70 79 89 130 171 177 221 240 245 251 269 280 282 281 287 281 271 268 272 271 278 280 271 260 256 246 236 225 231 236 232 232 236
65 58 342 339 358 231 257 303 241 237 233 218 173 116 78 65 52 40 58 111 229 249 260 265 276 295 307 297 273 284 291 293 291 283 271 263 271 278 267 261 252 259 247 224 231 228 237 235 238
255 148 158 257 216 241 338 255 251 214 243 246 246 233 200 271 312 312 302 302 295 287 284 281 282 290 291 289 278 279 283 288 288 290 282 270 272 276 268 261 254 259 245 228 235 237 238 238 240
174 209 186 210 228 94 217 281 312 227 276 281 240 211 233 253 276 288 292 283 283 288 288 288 296 294 291 295 289 290 290 285 283 288 288 278 268 267 271 262 258 256 251 241 241 227 233 235 236
151 173 4 15 296 258 265 244 227 218 234 261 250 243 274 262 288 292 273 272 273 270 272 278 290 300 303 301 297 291 289 290 283 280 285 277 267 263 264 266 261 256 245 237 224 227 230 231 231
272 188 161 167 160 229 278 244 214 232 234 243 265 284 301 290 294 302 290 264 245 246 258 276 289 299 303 301 299 306 294 287 279 282 283 277 266 259 262 264 259 254 245 227 227 224 226 225 226
186 207 159 140 260 225 215 261 277 254 240 251 280 321 315 305 301 294 288 242 228 242 262 277 292 294 298 300 303 305 297 286 272 278 280 275 269 260 264 260 259 251 240 232 222 221 219 221 224